Morrisville, NC

3:52 AM EST on February 24, 2017 (GMT -0500)
Raleigh-Durham International

Weather History for KRDU - April, 2012

Change the Weather History Date:

Tuesday, April 17, 2012

  Actual Average Record
Temperature  
Mean Temperature 73 °F 61 °F  
Max Temperature 86 °F 73 °F 93 °F (1896)
Min Temperature 60 °F 48 °F 29 °F (1962)
Degree Days  
Heating Degree Days 0 6  
Month to date heating degree days 117 130  
Since 1 July heating degree days 2443 3126  
Cooling Degree Days 8 2  
Month to date cooling degree days 26 21  
Year to date cooling degree days 74 33  
Growing Degree Days 23 (Base 50)    
Moisture  
Dew Point 56 °F    
Average Humidity 63    
Maximum Humidity 90    
Minimum Humidity 35    
Precipitation  
Precipitation 0.00 in 0.10 in 2.55 in (1910)
Month to date precipitation 0.84 1.72  
Year to date precipitation 10.10 12.56  
Snow  
Snow 0.00 in 0.00 in T in (2001)
Month to date snowfall 0.0 0.1  
Since 1 July snowfall 0.9 6.1  
Snow Depth 0.00 in    
Sea Level Pressure  
Sea Level Pressure 30.12 in    
Wind  
Wind Speed 7 mph (North)    
Max Wind Speed 17 mph    
Max Gust Speed 24 mph    
Visibility 10 miles    
Events      
T = Trace of Precipitation, MM = Missing Value Source: NWS Daily Summary

Daily Weather History Graph

Daily Weather History Graph

Search for Another Location

Airport or City:

Trip Planner

Search our weather history database for the weather conditions in past years. The results will help you decide how hot, cold, wet, or windy it might be!

Date:

Astronomy

Apr. 17, 2012 Rise Set
Actual Time 6:38 AM EDT 7:50 PM EDT
Civil Twilight 6:12 AM EDT 8:17 PM EDT
Nautical Twilight 5:40 AM EDT 8:48 PM EDT
Astronomical Twilight 5:08 AM EDT 9:21 PM EDT
Moon 4:29 AM EDT (4/17) 4:47 PM EDT (4/17)
Length of Visible Light 14h 04m
Length of Day
13h 11m
Waning Crescent, 12% of the Moon is Illuminated
Apr 17
Waning Crescent
Apr 21
New
Apr 29
First Quarter
May 5
Full
May 12
Last Quarter

Hourly Weather History & Observations

Time (EDT) Temp. Heat Index Dew Point Humidity Pressure Visibility Wind Dir Wind Speed Gust Speed Precip Events Conditions
12:51 AM 68.0 °F - 57.9 °F 70% 30.10 in 10.0 mi SW 8.1 mph - N/A   Partly Cloudy
1:51 AM 64.9 °F - 57.9 °F 78% 30.09 in 10.0 mi SW 6.9 mph - N/A   Partly Cloudy
2:51 AM 63.0 °F - 57.9 °F 84% 30.08 in 10.0 mi SW 6.9 mph - N/A   Partly Cloudy
3:51 AM 62.1 °F - 57.0 °F 84% 30.09 in 10.0 mi SW 6.9 mph - N/A   Partly Cloudy
4:51 AM 62.1 °F - 57.9 °F 86% 30.09 in 10.0 mi WSW 3.5 mph - N/A   Clear
5:51 AM 61.0 °F - 57.0 °F 87% 30.10 in 10.0 mi WSW 4.6 mph - N/A   Clear
6:51 AM 61.0 °F - 57.9 °F 90% 30.13 in 10.0 mi WSW 4.6 mph - N/A   Partly Cloudy
7:51 AM 63.0 °F - 59.0 °F 87% 30.15 in 10.0 mi SW 5.8 mph - N/A   Partly Cloudy
8:51 AM 68.0 °F - 60.1 °F 76% 30.17 in 10.0 mi Variable 3.5 mph - N/A   Partly Cloudy
9:51 AM 75.0 °F - 57.9 °F 55% 30.17 in 10.0 mi Variable 4.6 mph - N/A   Scattered Clouds
10:51 AM 77.0 °F - 57.9 °F 52% 30.18 in 10.0 mi NE 11.5 mph 17.3 mph N/A   Scattered Clouds
11:51 AM 80.1 °F 80.4 °F 57.0 °F 45% 30.17 in 10.0 mi NNE 9.2 mph - N/A   Scattered Clouds
12:51 PM 82.0 °F 82.0 °F 57.9 °F 44% 30.15 in 10.0 mi Variable 3.5 mph - N/A   Scattered Clouds
1:51 PM 84.0 °F 83.3 °F 57.0 °F 40% 30.13 in 10.0 mi Variable 6.9 mph - N/A   Scattered Clouds
2:51 PM 82.9 °F 82.4 °F 57.0 °F 41% 30.11 in 10.0 mi NNE 5.8 mph - N/A   Scattered Clouds
3:51 PM 84.9 °F 83.6 °F 55.0 °F 36% 30.09 in 10.0 mi North 5.8 mph - N/A   Mostly Cloudy
4:51 PM 82.0 °F 81.7 °F 57.0 °F 42% 30.10 in 10.0 mi NNE 4.6 mph - N/A   Mostly Cloudy
5:51 PM 81.0 °F 80.7 °F 55.0 °F 41% 30.09 in 10.0 mi NNE 6.9 mph - N/A   Mostly Cloudy
6:51 PM 79.0 °F - 55.9 °F 45% 30.08 in 10.0 mi ENE 10.4 mph - N/A   Mostly Cloudy
7:51 PM 75.0 °F - 55.0 °F 50% 30.08 in 10.0 mi NE 5.8 mph - N/A   Mostly Cloudy
8:51 PM 75.2 °F - 55.4 °F 50% 30.11 in 10.0 mi ENE 13.8 mph - N/A   Mostly Cloudy
9:51 PM 73.0 °F - 46.0 °F 38% 30.12 in 10.0 mi ENE 11.5 mph - N/A   Mostly Cloudy
10:51 PM 71.1 °F - 43.0 °F 36% 30.12 in 10.0 mi ENE 6.9 mph - N/A   Mostly Cloudy
11:51 PM 70.0 °F - 44.1 °F 39% 30.14 in 10.0 mi NE 8.1 mph - N/A   Mostly Cloudy